Weather History for KHKS - July, 2013

Change the Weather History Date:

Monday, July 29, 2013

  Actual Average (KJAN) Record (KJAN)
Temperature  
Mean Temperature 82 °F 82 °F  
Max Temperature 93 °F 92 °F 107 °F (1930)
Min Temperature 73 °F 72 °F 61 °F (1994)
Degree Days  
Heating Degree Days 0 0  
Month to date heating degree days 0  
Since 1 June heating degree days 0  
Since 1 July heating degree days 0  
Cooling Degree Days 17 17  
Month to date cooling degree days 486  
Year to date cooling degree days 1266  
Since 1 June cooling degree days 908  
Growing Degree Days 32 (Base 50)    
Moisture  
Dew Point 70 °F    
Average Humidity 68    
Maximum Humidity 94    
Minimum Humidity 44    
Precipitation  
Precipitation 0.00 in 0.16 in 1.76 in (2009)
Month to date precipitation 4.51  
Year to date precipitation 32.74  
Sea Level Pressure  
Sea Level Pressure 30.07 in    
Wind  
Wind Speed 2 mph (ESE)    
Max Wind Speed 7 mph    
Max Gust Speed -    
Visibility 10 miles    
Events      
T = Trace of Precipitation, MM = Missing Value Source: NWS Daily Summary

Daily Weather History Graph

Daily Weather History Graph

Search for Another Location

Airport or City:

Trip Planner

Search our weather history database for the weather conditions in past years. The results will help you decide how hot, cold, wet, or windy it might be!

Date:

Astronomy

Jul. 29, 2013 Rise Set
Actual Time 6:13 AM CDT 8:00 PM CDT
Civil Twilight 5:46 AM CDT 8:27 PM CDT
Nautical Twilight 5:14 AM CDT 8:59 PM CDT
Astronomical Twilight 4:39 AM CDT 9:34 PM CDT
Moon No Moon Rise 1:25 PM CDT (7/29)
Length of Visible Light 14h 40m
Length of Day
13h 46m
Waning Gibbous, 50% of the Moon is Illuminated
Jul 29
Waning Gibbous
Jul 29
Last Quarter
Aug 6
New
Aug 14
First Quarter
Aug 20
Full

Hourly Weather History & Observations

Time (CDT) Temp. Heat Index Dew Point Humidity Pressure Visibility Wind Dir Wind Speed Gust Speed Precip Events Conditions
12:53 AM 75.9 °F - 73.0 °F 91% 30.01 in 8.0 mi Calm Calm - N/A   Clear
1:53 AM 75.0 °F - 73.0 °F 94% 30.01 in 7.0 mi Calm Calm - N/A   Clear
2:53 AM 75.0 °F - 72.0 °F 90% 30.01 in 8.0 mi Calm Calm - N/A   Clear
3:53 AM 75.0 °F - 71.1 °F 87% 30.02 in 10.0 mi ENE 3.5 mph - N/A   Clear
4:53 AM 73.9 °F - 70.0 °F 87% 30.04 in 10.0 mi Calm Calm - N/A   Clear
5:53 AM 73.9 °F - 70.0 °F 87% 30.05 in 10.0 mi Calm Calm - N/A   Clear
6:53 AM 73.9 °F - 69.1 °F 85% 30.07 in 10.0 mi Calm Calm - N/A   Clear
7:53 AM 75.9 °F - 70.0 °F 82% 30.09 in 10.0 mi East 4.6 mph - N/A   Clear
8:53 AM 80.1 °F 83.2 °F 70.0 °F 71% 30.10 in 10.0 mi ESE 4.6 mph - N/A   Clear
9:53 AM 84.0 °F 89.0 °F 71.1 °F 65% 30.11 in 10.0 mi ENE 3.5 mph - N/A   Clear
10:53 AM 87.1 °F 92.0 °F 70.0 °F 57% 30.11 in 10.0 mi Calm Calm - N/A   Clear
11:53 AM 89.1 °F 94.1 °F 70.0 °F 53% 30.09 in 10.0 mi NE 3.5 mph - N/A   Clear
12:53 PM 91.0 °F 96.6 °F 70.0 °F 50% 30.09 in 10.0 mi East 3.5 mph - N/A   Partly Cloudy
1:53 PM 89.1 °F 92.9 °F 68.0 °F 50% 30.08 in 10.0 mi Calm Calm - N/A   Partly Cloudy
2:53 PM 91.0 °F 95.6 °F 69.1 °F 48% 30.07 in 10.0 mi NE 3.5 mph - N/A   Mostly Cloudy
3:53 PM 90.0 °F 94.5 °F 69.1 °F 50% 30.06 in 10.0 mi SSE 6.9 mph - N/A   Mostly Cloudy
4:53 PM 91.9 °F 95.9 °F 68.0 °F 45% 30.06 in 10.0 mi Variable 4.6 mph - N/A   Mostly Cloudy
5:53 PM 91.9 °F 95.4 °F 66.9 °F 44% 30.06 in 10.0 mi South 4.6 mph - N/A   Clear
6:53 PM 90.0 °F 93.6 °F 68.0 °F 48% 30.06 in 10.0 mi SE 4.6 mph - N/A   Clear
7:53 PM 84.9 °F 89.4 °F 70.0 °F 61% 30.06 in 10.0 mi SSE 3.5 mph - N/A   Clear
8:53 PM 82.9 °F 87.5 °F 71.1 °F 67% 30.06 in 10.0 mi Calm Calm - N/A   Clear
9:53 PM 82.9 °F 88.0 °F 72.0 °F 69% 30.08 in 10.0 mi ESE 5.8 mph - N/A   Clear
10:53 PM 82.0 °F 86.7 °F 72.0 °F 71% 30.09 in 10.0 mi SE 6.9 mph - N/A   Clear
11:53 PM 81.0 °F 85.2 °F 72.0 °F 74% 30.10 in 10.0 mi ESE 6.9 mph - N/A   Clear